Regional Weather Roundup
Issued by NWS Northern Indiana

Home | Current Version | Previous Version | Text Only | Print | Product List | Glossary On
Versions: 1 2 3 4 5 6 7 8 9 10 11 12 13 14 15 16 17 18 19 20 21 22 23 24 25 26 27 28 29 30 31 32 33 34 35 36 37 38 39 40 41 42 43 44 45 46 47 48 49 50
897
ASUS43 KIWX 121310
RWRIWX

KIWX WEATHER ROUNDUP
NATIONAL WEATHER SERVICE NORTHERN INDIANA
800 AM EST TUE DEC 12 2017

NOTE: "FAIR" INDICATES FEW OR NO CLOUDS BELOW 12,000 FEET WITH NO
SIGNIFICANT WEATHER AND/OR OBSTRUCTIONS TO VISIBILITY.

* THESE STATIONS ARE NOT UNDER NWS QUALITY CONTROL. THEY ALSO MAY NOT
  REPORT WEATHER SUCH AS PRECIPITATION OR FOG.

INZ001>027-121400-
NORTHERN INDIANA

CITY           SKY/WX    TMP DP  RH WIND       PRES   REMARKS
GARY*          MOCLDY    21   9  58 NW17G35   30.05R WCI   7
VALPARAISO     CLOUDY    23  14  68 NW20G25   30.00R WCI   8
MICHIGAN CITY* FLURRIES  25  18  74 NW16G24   29.99R WCI  12
LAPORTE*       CLOUDY    23  14  67 N17G25    29.98R WCI   9
KNOX*          CLOUDY    25  18  74 NW16      29.98R WCI  12
SOUTH BEND     FLURRIES  21  16  81 NW18G26   29.96R WCI   6
ELKHART*       LGT SNOW  21  18  86 NW10G16   29.94R WCI  10
GOSHEN         LGT SNOW  22  18  85 NW15      29.93R VSB 3/4 WCI   9
MONTICELLO*    PTCLDY    22   9  56 NW21      30.01R WCI   6
LOGANSPORT*    FLURRIES  23  14  68 NW13G23   29.99R WCI  11
ROCHESTER*     MOCLDY    27  18  69 NW16      29.96R WCI  14
WARSAW*        MOCLDY    23  18  80 NW12G24   29.94R WCI  12
AUBURN*        CLOUDY    23  12  63 N12       29.91R WCI  12
FORT WAYNE     LGT SNOW  23  19  85 NW17G24   29.92R FOG     WCI   9
HUNTINGTON*    CLOUDY    24  14  66 NW7G16    29.93R WCI  16
PERU/GRISSOM   CLOUDY    24  16  70 NW16G25   29.95R WCI  11
MARION*        LGT SNOW  24  18  75 NW14G22   29.95R WCI  12

$$
INZ028>050-121400-
CENTRAL INDIANA

CITY           SKY/WX    TMP DP  RH WIND       PRES   REMARKS
LAFAYETTE      CLEAR     21  12  68 NW13      30.03R WCI   9
KOKOMO*        CLOUDY    25  16  68 NW17      29.97R WCI  12
MUNCIE*        CLOUDY    27  18  69 NW18G25   29.92R WCI  14
INDIANAPOLIS   PTCLDY    24  13  62 NW17G30   30.00R WCI  11

$$
MIZ043>046-050>051-056>058-064>065-071>073-077>080-121400-
SOUTHWEST LOWER MICHIGAN

CITY           SKY/WX    TMP DP  RH WIND       PRES   REMARKS
BATTLE CREEK   PTCLDY    18   6  59 NW10      29.90R WCI   6
BENTON HARBOR  LGT SNOW  24  11  57 NW12G28   29.97R WCI  13
COLDWATER*     PTCLDY    18   8  65 NW8       29.89R WCI   7
HILLSDALE*     MOCLDY    19  10  68 NW12G24   29.84R WCI   7
HOLLAND        SNOW      19  15  84 N12G18    29.95R VSB 1/2 WCI   7
GRAND RAPIDS   MOCLDY    19  10  68 NW13G24   29.90R WCI   6
KALAMAZOO      CLOUDY    19  12  74 NW14      29.92R WCI   6
STURGIS*       MOCLDY    18  12  77 N13       29.91R WCI   5
THREE RIVERS*  LGT SNOW  21  16  82 N7        29.92R WCI  12

$$
OHZ001>008-015>018-024>025-121400-
NORTHWEST OHIO

CITY           SKY/WX    TMP DP  RH WIND       PRES   REMARKS
WAUSEON*       FAIR      21  12  68 NW16G25   29.86R WCI   7
DEFIANCE       CLEAR     21  10  62 NW16G24   29.90R WCI   7
FINDLAY        CLEAR     23  10  57 NW20G25   29.84R WCI   8
TOLEDO EXPRESS MOCLDY    22  11  62 NW13G23   29.85R WCI  10
TOLEDO METCALF CLOUDY    24  13  62 NW23G35   29.85R WCI   9
LIMA           CLOUDY    25  10  53 NW24G33   29.85R WCI   9

$$
AND FOR LAKE MICHIGAN COASTAL AND OPEN LAKE BUOY OBSERVATIONS

STATION/POSITION TEMP    WIND        PRES    VSBY  WAVE
                 AIR SEA DIR/SP/G                  HT/PER
                 (F)     (DEG/KT/KT) (MB)    (MI)  (FT/S)
CALUMET HARBOR    19     290/  9/ 22 1017.0R
MICHIGAN CITY     23     310/ 29/ 34   N/A
BURNS HARBOR      24     300/ 25/ 31 1015.9R
SAINT JOSEPH      26     350/ 27/ 36 1014.9

$$
&&




USA.gov is the U.S. government's official web portal to all federal, state and local government web resources and services.